GW1496 Weather Reports


Display with metric or nautical units.
time (UTC)temp
F
wind
direction
speed
MPH
gust
MPH
rain 1hr
in
rain 24hr
in
rain mn
in
humidity
%
barometer
mb
20260831115442 67 292 2.0 2.0 0.00 0.00 0.00 92 1012.8
20260831114222 67 292 1.0 1.0 0.00 0.00 0.00 92 1012.8
20260831113636 67 292 0.0 0.0 0.00 0.00 0.00 92 1012.8
20260831113049 67 292 2.0 2.0 0.00 0.00 0.00 92 1012.8
20260831112411 67 292 0.0 0.0 0.00 0.00 0.00 93 1012.8
20260831111221 67 292 0.0 0.0 0.00 0.00 0.00 92 1012.8
20260831110608 67 292 1.0 1.0 0.00 0.00 0.00 92 1012.8
20260831110042 67 292 0.0 0.0 0.00 0.00 0.00 92 1012.8
20260831104852 68 292 0.0 0.0 0.00 0.00 0.00 92 1012.8
20260831104229 68 292 2.0 2.0 0.00 0.00 0.00 92 1011.8
20260831103641 68 292 0.0 0.0 0.00 0.00 0.00 92 1011.8
20260831103026 68 292 0.0 0.0 0.00 0.00 0.00 92 1011.8
20260831102417 68 292 0.0 0.0 0.00 0.00 0.00 92 1011.8
20260831101839 68 292 0.0 0.0 0.00 0.00 0.00 92 1011.8
20260831101226 68 292 0.0 0.0 0.00 0.00 0.00 92 1011.8
20260831100629 68 292 0.0 0.0 0.00 0.00 0.00 92 1011.8
20260831100049 68 292 0.0 0.0 0.00 0.00 0.00 92 1011.8
20260831094241 68 292 0.0 0.0 0.00 0.00 0.00 92 1011.8
20260831093645 68 292 0.0 0.0 0.00 0.00 0.00 92 1011.8
20260831093047 68 292 0.0 0.0 0.00 0.00 0.00 92 1011.8
20260831092425 68 292 2.0 2.0 0.00 0.00 0.00 92 1011.8
20260831091841 68 292 0.0 0.0 0.00 0.00 0.00 92 1011.8
20260831090014 68 315 1.0 1.0 0.00 0.00 0.00 93 1011.8
20260831085446 68 315 0.0 0.0 0.00 0.00 0.00 92 1011.8
20260831084813 68 315 0.0 0.0 0.00 0.00 0.00 92 1011.8
20260831083627 68 315 2.0 2.0 0.00 0.00 0.00 92 1011.8
20260831083041 69 315 0.0 0.0 0.00 0.00 0.00 92 1011.8
20260831082423 69 315 1.0 1.0 0.00 0.00 0.00 92 1011.8
20260831081818 69 315 0.0 0.0 0.00 0.00 0.00 92 1011.8
20260831081213 68 315 0.0 0.0 0.00 0.00 0.00 93 1011.8
20260831080627 69 315 1.0 1.0 0.00 0.00 0.00 93 1011.8
20260831075429 69 315 0.0 0.0 0.00 0.00 0.00 92 1011.8
20260831074806 69 315 2.0 2.0 0.00 0.00 0.00 92 1011.8
20260831074237 69 315 0.0 0.0 0.00 0.00 0.00 92 1011.8
20260831073615 69 315 0.0 0.0 0.00 0.00 0.00 92 1011.8
20260831073040 69 315 0.0 0.0 0.00 0.00 0.00 93 1011.8
20260831071845 69 315 0.0 0.0 0.00 0.00 0.00 93 1011.8
20260831070648 70 0 0.0 0.0 0.00 0.00 0.00 92 1011.8
20260831070008 70 0 0.0 0.0 0.00 0.00 0.00 92 1011.8
20260831065444 70 0 0.0 0.0 0.00 0.00 0.00 93 1011.8
20260831064821 70 0 0.0 0.0 0.00 0.00 0.00 93 1011.8
20260831064208 70 0 0.0 0.0 0.00 0.00 0.00 92 1011.8
20260831063033 70 22 1.0 1.0 0.00 0.00 0.00 92 1011.8
20260831062429 70 45 0.0 0.0 0.00 0.00 0.00 92 1011.8
20260831061817 70 45 0.0 0.0 0.00 0.00 0.00 93 1011.8
20260831061236 70 45 0.0 0.0 0.00 0.00 0.00 93 1011.8
20260831060636 70 68 0.0 0.0 0.00 0.00 0.00 92 1011.8
20260831060024 70 68 1.0 1.0 0.00 0.00 0.00 92 1011.8
20260831055425 70 315 1.0 1.0 0.00 0.00 0.00 92 1011.8
20260831054840 70 292 2.0 2.0 0.00 0.00 0.00 92 1011.8
20260831054217 70 292 0.0 0.0 0.00 0.00 0.00 91 1011.8
20260831053621 71 292 0.0 0.0 0.00 0.00 0.00 91 1011.8
20260831053031 70 292 0.0 0.0 0.00 0.00 0.00 91 1011.8
20260831051825 70 292 0.0 0.0 0.00 0.00 0.00 91 1011.8
20260831050642 70 292 0.0 0.0 0.00 0.00 0.00 93 1011.8
20260831045438 70 292 0.0 0.0 0.00 0.00 0.00 93 1011.8
20260831044213 70 292 0.0 0.0 0.00 0.00 0.00 93 1011.8
20260831043638 70 292 0.0 0.0 0.00 0.00 0.00 93 1011.8
20260831043049 70 292 0.0 0.0 0.00 0.00 0.00 93 1011.8
20260831042416 70 292 0.0 0.0 0.00 0.00 0.00 93 1011.8
20260831041832 70 292 0.0 0.0 0.00 0.00 0.00 93 1011.8
20260831040635 70 292 0.0 0.0 0.00 0.00 0.00 92 1011.8
20260831040028 70 292 0.0 0.0 0.00 0.00 0.00 92 1011.8
20260831034829 70 292 0.0 0.0 0.00 0.00 0.00 92 1011.8
20260831034219 71 292 0.0 0.0 0.00 0.00 0.00 92 1011.8
20260831033644 71 292 0.0 0.0 0.00 0.00 0.00 92 1011.8
20260831033012 71 292 0.0 0.0 0.00 0.00 0.00 92 1011.8
20260831032451 71 292 0.0 0.0 0.00 0.00 0.00 91 1011.8
20260831031813 71 292 0.0 0.0 0.00 0.00 0.00 91 1011.8
20260831031234 71 292 0.0 0.0 0.00 0.00 0.00 91 1012.8
20260831030621 72 292 0.0 0.0 0.00 0.00 0.00 90 1012.8
20260831025424 72 292 0.0 0.0 0.00 0.00 0.00 91 1011.8
20260831024226 72 292 0.0 0.0 0.00 0.00 0.00 90 1011.8
20260831023629 72 292 0.0 0.0 0.00 0.00 0.00 90 1011.8
20260831023010 73 292 0.0 0.0 0.00 0.00 0.00 90 1011.8
20260831022426 74 292 0.0 0.0 0.00 0.00 0.00 88 1011.8
20260831021811 73 292 0.0 0.0 0.00 0.00 0.00 86 1011.8
20260831021246 73 292 1.0 1.0 0.00 0.00 0.00 89 1011.8
20260831020640 74 292 0.0 0.0 0.00 0.00 0.00 87 1011.8
20260831015435 74 292 0.0 0.0 0.00 0.00 0.00 88 1011.8
20260831014807 75 292 0.0 0.0 0.00 0.00 0.00 86 1011.8
20260831014231 76 292 0.0 0.0 0.00 0.00 0.00 84 1011.8
20260831013622 75 292 0.0 0.0 0.00 0.00 0.00 84 1011.8
20260831013049 76 292 0.0 0.0 0.00 0.00 0.00 84 1011.8
20260831012433 76 292 0.0 0.0 0.00 0.00 0.00 82 1011.8
20260831011251 74 292 0.0 0.0 0.00 0.00 0.00 86 1011.8
20260831010633 75 292 0.0 0.0 0.00 0.00 0.00 85 1011.8
20260831010048 75 292 0.0 0.0 0.00 0.00 0.00 85 1011.8
20260831005445 74 292 0.0 0.0 0.00 0.00 0.00 86 1011.8
20260831004839 75 292 0.0 0.0 0.00 0.00 0.00 86 1011.8
20260831004244 75 292 0.0 0.0 0.00 0.00 0.00 85 1010.8
20260831003639 75 292 0.0 0.0 0.00 0.00 0.00 85 1010.8
20260831003016 76 292 0.0 0.0 0.00 0.00 0.00 85 1010.8
20260831001838 77 292 0.0 0.0 0.00 0.00 0.00 82 1010.8
20260831001209 77 292 0.0 0.0 0.00 0.00 0.00 80 1010.8
20260831000649 77 292 1.0 1.0 0.00 0.00 0.00 81 1010.8
20260831000024 77 292 0.0 0.0 0.00 0.00 0.00 80 1010.8
20260830234847 78 292 0.0 0.0 0.00 0.00 0.00 78 1010.8
20260830234227 79 292 0.0 0.0 0.00 0.00 0.00 77 1010.8
20260830233608 80 292 0.0 0.0 0.00 0.00 0.00 76 1010.8
20260830232412 80 292 1.0 1.0 0.00 0.00 0.00 74 1010.8
20260830231227 81 292 0.0 0.0 0.00 0.00 0.00 71 1010.8
20260830230609 82 292 0.0 0.0 0.00 0.00 0.00 70 1010.8
20260830230024 82 292 0.0 0.0 0.00 0.00 0.00 68 1010.8
20260830224842 84 270 0.0 0.0 0.00 0.00 0.00 67 1010.8
20260830224245 86 270 0.0 0.0 0.00 0.00 0.00 65 1010.8
20260830223615 88 270 0.0 0.0 0.00 0.00 0.00 60 1010.8
20260830222427 89 270 0.0 0.0 0.00 0.00 0.00 56 1010.8
20260830221823 88 270 0.0 0.0 0.00 0.00 0.00 56 1010.8
20260830215444 90 225 0.0 0.0 0.00 0.00 0.00 58 1010.8
20260830214824 91 292 1.0 1.0 0.00 0.00 0.00 52 1010.8
20260830214234 91 338 2.0 2.0 0.00 0.00 0.00 53 1010.8
20260830213610 92 22 0.0 0.0 0.00 0.00 0.00 51 1010.8
20260830212447 91 292 0.0 0.0 0.00 0.00 0.00 50 1010.8
20260830211844 92 292 1.0 1.0 0.00 0.00 0.00 53 1010.8
20260830211221 94 225 2.0 2.0 0.00 0.00 0.00 52 1010.8
20260830210613 93 270 2.0 2.0 0.00 0.00 0.00 44 1010.8
20260830210045 93 292 0.0 0.0 0.00 0.00 0.00 47 1010.8
20260830205430 94 248 2.0 2.0 0.00 0.00 0.00 43 1010.8
20260830204832 94 158 3.0 3.0 0.00 0.00 0.00 40 1010.8
20260830204247 94 292 0.0 0.0 0.00 0.00 0.00 40 1010.8
20260830203641 94 202 2.0 2.0 0.00 0.00 0.00 45 1010.8
20260830203046 94 248 0.0 0.0 0.00 0.00 0.00 42 1010.8
20260830202427 94 225 2.0 2.0 0.00 0.00 0.00 41 1010.8
20260830201822 93 248 1.0 1.0 0.00 0.00 0.00 43 1010.8
20260830201226 91 292 1.0 1.0 0.00 0.00 0.00 43 1010.8
20260830200650 91 202 2.0 2.0 0.00 0.00 0.00 43 1010.8
20260830200025 91 68 2.0 2.0 0.00 0.00 0.00 50 1010.8
20260830195416 93 270 2.0 2.0 0.00 0.00 0.00 49 1010.8
20260830194833 94 202 2.0 2.0 0.00 0.00 0.00 45 1010.8
20260830194212 93 68 2.0 2.0 0.00 0.00 0.00 42 1010.8
20260830193608 92 248 1.0 1.0 0.00 0.00 0.00 45 1010.8
20260830193024 92 180 0.0 0.0 0.00 0.00 0.00 47 1010.8
20260830192415 91 225 0.0 0.0 0.00 0.00 0.00 46 1010.8
20260830191819 91 225 5.0 6.0 0.00 0.00 0.00 48 1010.8
20260830191225 91 68 2.0 2.0 0.00 0.00 0.00 47 1011.8
20260830190633 91 248 2.0 2.0 0.00 0.00 0.00 49 1011.8
20260830185433 91 22 1.0 1.0 0.00 0.00 0.00 49 1011.8
20260830184830 90 292 2.0 2.0 0.00 0.00 0.00 47 1011.8
20260830183639 90 90 3.0 3.0 0.00 0.00 0.00 50 1011.8
20260830183021 90 225 2.0 2.0 0.00 0.00 0.00 49 1011.8
20260830182440 89 248 2.0 2.0 0.00 0.00 0.00 51 1011.8
20260830181841 89 112 2.0 2.0 0.00 0.00 0.00 50 1011.8
20260830180617 89 68 0.0 0.0 0.00 0.00 0.00 52 1012.8
20260830180049 88 68 2.0 2.0 0.00 0.00 0.00 54 1012.8
20260830175448 88 90 2.0 2.0 0.00 0.00 0.00 55 1012.8
20260830174847 89 112 1.0 1.0 0.00 0.00 0.00 55 1012.8
20260830174207 89 180 3.0 3.0 0.00 0.00 0.00 52 1012.8
20260830173011 88 90 0.0 0.0 0.00 0.00 0.00 54 1012.8
20260830172446 86 90 1.0 1.0 0.00 0.00 0.00 55 1012.8
20260830171844 84 248 0.0 0.0 0.00 0.00 0.00 59 1012.8
20260830171240 82 112 1.0 1.0 0.00 0.00 0.00 66 1013.8
20260830170609 83 112 3.0 3.0 0.00 0.00 0.00 66 1013.8
20260830170047 83 68 3.0 3.0 0.00 0.00 0.00 63 1013.8
20260830165423 85 112 2.0 2.0 0.00 0.00 0.00 63 1013.8
20260830164843 86 112 3.0 3.0 0.00 0.00 0.00 60 1013.8
20260830163613 87 112 1.0 1.0 0.00 0.00 0.00 57 1013.8
20260830163045 87 112 0.0 0.0 0.00 0.00 0.00 58 1013.8
20260830162414 88 90 1.0 1.0 0.00 0.00 0.00 58 1013.8
20260830161808 88 248 0.0 0.0 0.00 0.00 0.00 55 1013.8
20260830161233 86 68 2.0 2.0 0.00 0.00 0.00 56 1013.8
20260830160638 86 270 1.0 1.0 0.00 0.00 0.00 57 1013.8
20260830160022 85 248 5.0 5.0 0.00 0.00 0.00 60 1013.8
20260830155408 86 248 0.0 0.0 0.00 0.00 0.00 59 1013.8
20260830154835 86 248 1.0 1.0 0.00 0.00 0.00 59 1013.8
20260830154209 86 90 0.0 0.0 0.00 0.00 0.00 57 1013.8
20260830153644 86 90 3.0 3.0 0.00 0.00 0.00 60 1013.8
20260830153010 87 90 2.0 2.0 0.00 0.00 0.00 60 1013.8
20260830152442 87 90 0.0 0.0 0.00 0.00 0.00 61 1013.8
20260830151815 86 112 1.0 1.0 0.00 0.00 0.00 58 1013.8
20260830151230 84 90 1.0 1.0 0.00 0.00 0.00 58 1013.8
20260830150633 83 90 1.0 1.0 0.00 0.00 0.00 61 1013.8
20260830150025 82 90 2.0 2.0 0.00 0.00 0.00 67 1013.8
20260830144842 81 90 1.0 1.0 0.00 0.00 0.00 70 1013.8
20260830144239 80 90 2.0 2.0 0.00 0.00 0.00 70 1013.8
20260830143032 78 90 1.0 1.0 0.00 0.00 0.00 77 1013.8
20260830142435 79 90 0.0 0.0 0.00 0.00 0.00 74 1013.8
20260830141828 79 90 0.0 0.0 0.00 0.00 0.00 72 1013.8
20260830141231 78 90 1.0 1.0 0.00 0.00 0.00 74 1013.8
20260830140619 78 90 2.0 2.0 0.00 0.00 0.00 73 1013.8
20260830140008 76 90 0.0 0.0 0.00 0.00 0.00 75 1013.8
20260830135409 74 90 0.0 0.0 0.00 0.00 0.00 79 1013.8
20260830134841 73 90 0.0 0.0 0.00 0.00 0.00 81 1013.8
20260830134218 72 90 2.0 2.0 0.00 0.00 0.00 81 1013.8
20260830133641 72 68 2.0 2.0 0.00 0.00 0.00 84 1013.8
20260830133040 72 68 1.0 1.0 0.00 0.00 0.00 83 1013.8
20260830132432 71 68 0.0 0.0 0.00 0.00 0.00 83 1013.8
20260830131841 69 68 2.0 2.0 0.00 0.00 0.00 86 1013.8
20260830130626 68 68 1.0 1.0 0.00 0.00 0.00 88 1013.8
20260830130032 68 68 0.0 0.0 0.00 0.00 0.00 89 1013.8
20260830125410 67 68 0.0 0.0 0.00 0.00 0.00 90 1013.8
20260830124824 67 68 1.0 1.0 0.00 0.00 0.00 91 1013.8
20260830124210 67 68 0.0 0.0 0.00 0.00 0.00 91 1013.8
20260830123648 66 68 0.0 0.0 0.00 0.00 0.00 93 1013.8
20260830123041 66 68 0.0 0.0 0.00 0.00 0.00 93 1013.8
20260830122422 66 68 0.0 0.0 0.00 0.00 0.00 93 1013.8
20260830121823 66 68 0.0 0.0 0.00 0.00 0.00 94 1013.8
20260830121238 65 68 0.0 0.0 0.00 0.00 0.00 94 1013.8
20260830120635 65 68 0.0 0.0 0.00 0.00 0.00 94 1013.8
20260830120020 65 68 0.0 0.0 0.00 0.00 0.00 94 1013.8